Location: Nairn
(57.5833°N, 3.8667°W)
Time: 02:17:46
(UTC+00:00)

Cosmos 1674 - Pass Details

Date: 07 August 2020
Orbit: 495 x 517 km, 82.5° (Epoch: 27 September)

Event Time Altitude Azimuth Distance (km) Brightness Sun altitude
Rises 03:06:09 0° 336° (NNW) 2,599 6.6 -8.6°
Reaches altitude 10° 03:08:50 10° 316° (NW) 1,711 5.4 -8.4°
Maximum altitude 03:11:16 17° 275° (W) 1,340 4.5 -8.2°
Enters shadow 03:13:41 10° 234° (SW) 1,704 4.7 -8.0°
